EW5165 Weather Reports


time (UTC)temp
C
wind
direction
speed
KPH
gust
KPH
rain 1hr
cm
rain 24hr
cm
rain mn
cm
humidity
%
barometer
mb
20260508214002 16 20 1.6 9.7 0.00 0.00 0.00 70 1014.6
20260508213502 16 28 3.2 9.7 0.00 0.00 0.00 72 1014.6
20260508213002 16 19 3.2 11.3 0.00 0.00 0.00 71 1014.6
20260508212003 16 17 3.2 16.1 0.00 0.00 0.00 71 1014.4
20260508211502 16 19 4.8 11.3 0.00 0.00 0.00 71 1014.4
20260508211002 16 20 4.8 11.3 0.00 0.00 0.00 70 1014.4
20260508210502 16 14 3.2 11.3 0.00 0.00 0.00 70 1014.5
20260508210003 16 11 3.2 12.9 0.00 0.00 0.00 69 1014.4
20260508205502 16 13 3.2 12.9 0.00 0.00 0.00 68 1014.4
20260508205002 16 9 3.2 11.3 0.00 0.00 0.00 68 1014.4
20260508204502 16 6 3.2 11.3 0.00 0.00 0.00 67 1014.4
20260508204003 16 355 1.6 4.8 0.00 0.00 0.00 69 1014.4
20260508203002 17 15 3.2 12.9 0.00 0.00 0.00 68 1014.6
20260508202503 17 18 3.2 12.9 0.00 0.00 0.00 67 1014.7
20260508202002 17 8 3.2 12.9 0.00 0.00 0.00 66 1014.6
20260508201502 17 15 6.4 12.9 0.00 0.00 0.00 65 1014.6
20260508200503 17 357 3.2 12.9 0.00 0.00 0.00 67 1014.6
20260508200002 17 10 3.2 9.7 0.00 0.00 0.00 63 1014.7
20260508195502 17 45 4.8 12.9 0.00 0.00 0.00 65 1014.8
20260508194502 17 9 1.6 11.3 0.00 0.00 0.00 67 1015.1
20260508194002 17 2 1.6 11.3 0.00 0.00 0.00 65 1015.1
20260508193502 17 349 1.6 6.4 0.00 0.00 0.00 66 1015.2
20260508193002 17 340 3.2 11.3 0.00 0.00 0.00 65 1015.2
20260508192502 17 5 6.4 12.9 0.00 0.00 0.00 63 1015.4
20260508192003 17 25 4.8 12.9 0.00 0.00 0.00 66 1015.5
20260508191502 17 12 1.6 4.8 0.00 0.00 0.00 68 1015.5
20260508191003 17 6 1.6 4.8 0.00 0.00 0.00 67 1015.4
20260508190502 17 17 1.6 11.3 0.00 0.00 0.00 66 1015.5
20260508190002 17 11 1.6 11.3 0.00 0.00 0.00 66 1015.5
20260508185502 17 13 3.2 17.7 0.00 0.00 0.00 67 1015.7
20260508185002 16 18 4.8 17.7 0.00 0.00 0.00 65 1016.0
20260508184502 16 14 4.8 16.1 0.00 0.00 0.00 66 1016.0
20260508184002 16 18 3.2 16.1 0.00 0.00 0.00 64 1016.1
20260508183502 16 32 4.8 12.9 0.00 0.00 0.00 65 1016.1
20260508183002 16 27 3.2 12.9 0.00 0.00 0.00 67 1016.1
20260508182502 16 6 1.6 12.9 0.00 0.00 0.00 67 1016.1
20260508181502 16 14 3.2 9.7 0.00 0.00 0.00 64 1016.4
20260508181002 16 14 3.2 9.7 0.00 0.00 0.00 68 1016.2
20260508180502 16 337 1.6 9.7 0.00 0.00 0.00 65 1016.4
20260508180002 16 358 3.2 9.7 0.00 0.00 0.00 64 1016.4
20260508175002 16 19 3.2 11.3 0.00 0.00 0.00 65 1016.4
20260508174502 17 26 4.8 11.3 0.00 0.00 0.00 67 1016.6
20260508173503 16 353 3.2 9.7 0.00 0.00 0.00 67 1016.7
20260508173003 16 339 3.2 9.7 0.00 0.00 0.00 65 1016.7
20260508172503 16 2 3.2 11.3 0.00 0.00 0.00 63 1016.7
20260508172003 16 17 4.8 11.3 0.00 0.00 0.00 67 1016.7
20260508171003 16 16 3.2 11.3 0.00 0.00 0.00 65 1017.0
20260508170502 16 3 1.6 6.4 0.00 0.00 0.00 68 1017.2
20260508165002 16 3 1.6 11.3 0.00 0.00 0.00 68 1017.3
20260508164502 16 20 3.2 11.3 0.00 0.00 0.00 68 1017.4
20260508164002 15 35 3.2 11.3 0.00 0.00 0.00 71 1017.5
20260508163003 15 357 1.6 9.7 0.00 0.00 0.00 71 1017.7
20260508162503 15 352 1.6 6.4 0.00 0.00 0.00 72 1017.7
20260508162002 15 3 1.6 9.7 0.00 0.00 0.00 71 1017.6
20260508161503 15 352 1.6 9.7 0.00 0.00 0.00 71 1017.7
20260508161002 15 354 1.6 4.8 0.00 0.00 0.00 69 1017.7
20260508160503 15 10 1.6 11.3 0.00 0.00 0.00 71 1017.7
20260508160003 15 15 3.2 11.3 0.00 0.00 0.00 69 1017.8
20260508155003 15 10 1.6 9.7 0.00 0.00 0.00 70 1017.9
20260508154003 15 9 1.6 9.7 0.00 0.00 0.00 73 1018.0
20260508153003 15 330 1.6 4.8 0.00 0.00 0.00 70 1018.0
20260508152503 15 358 1.6 4.8 0.00 0.00 0.00 71 1018.1
20260508151502 14 347 1.6 4.8 0.00 0.00 0.00 71 1018.1
20260508151002 14 15 1.6 9.7 0.00 0.00 0.00 70 1018.0
20260508150502 14 22 1.6 9.7 0.00 0.00 0.00 68 1018.0
20260508145002 13 83 1.6 4.8 0.00 0.00 0.00 73 1018.0
20260508144503 13 198 0.0 4.8 0.00 0.00 0.00 72 1017.9
20260508144003 13 198 1.6 4.8 0.00 0.00 0.00 70 1017.9
20260508143502 12 199 1.6 4.8 0.00 0.00 0.00 73 1018.0
20260508143002 12 201 1.6 4.8 0.00 0.00 0.00 72 1018.1
20260508142502 12 203 0.0 4.8 0.00 0.00 0.00 72 1018.1
20260508141503 12 203 0.0 4.8 0.00 0.00 0.00 75 1018.2
20260508141002 12 203 0.0 1.6 0.00 0.00 0.00 75 1018.3
20260508140502 12 203 0.0 1.6 0.00 0.00 0.00 77 1018.3
20260508140003 11 203 0.0 1.6 0.00 0.00 0.00 76 1018.3
20260508135502 11 203 0.0 1.6 0.00 0.00 0.00 76 1018.3
20260508134503 11 203 0.0 1.6 0.00 0.03 0.00 78 1018.4
20260508132503 10 0 0.0 0.0 0.00 0.03 0.00 84 1018.4
20260508132003 10 203 0.0 1.6 0.00 0.03 0.00 83 1018.3
20260508131503 10 203 0.0 1.6 0.00 0.03 0.00 82 1018.2
20260508131002 10 203 0.0 1.6 0.00 0.03 0.00 84 1018.2
20260508130003 10 0 0.0 0.0 0.00 0.05 0.00 86 1018.3
20260508125002 9 0 0.0 0.0 0.00 0.10 0.00 86 1018.1
20260508124503 9 203 0.0 4.8 0.00 0.10 0.00 87 1018.1
20260508123503 8 203 0.0 1.6 0.00 0.10 0.00 88 1018.0
20260508123002 8 203 0.0 1.6 0.00 0.13 0.00 90 1017.9
20260508122503 8 203 0.0 1.6 0.00 0.13 0.00 91 1017.7
20260508122003 8 203 0.0 1.6 0.00 0.13 0.00 90 1017.6
20260508121503 7 203 0.0 1.6 0.00 0.13 0.00 93 1017.6
20260508120503 7 0 0.0 0.0 0.00 0.15 0.00 96 1017.5
20260508115503 7 203 0.0 1.6 0.00 0.15 0.00 96 1017.5
20260508114003 7 0 0.0 0.0 0.00 0.25 0.00 97 1017.3
20260508113503 7 0 0.0 0.0 0.00 0.25 0.00 97 1017.2
20260508113002 7 0 0.0 0.0 0.00 0.28 0.00 96 1017.1
20260508112503 7 0 0.0 0.0 0.00 0.28 0.00 97 1017.0
20260508112003 7 0 0.0 0.0 0.00 0.28 0.00 97 1016.9
20260508111503 7 0 0.0 0.0 0.00 0.28 0.00 97 1016.8
20260508111002 7 0 0.0 0.0 0.00 0.28 0.00 97 1016.7
20260508110503 7 0 0.0 0.0 0.00 0.30 0.00 97 1016.6
20260508110003 7 203 0.0 1.6 0.00 0.30 0.00 97 1016.7
20260508105503 6 203 0.0 1.6 0.00 0.33 0.00 97 1016.7
20260508104503 6 0 0.0 0.0 0.00 0.43 0.00 97 1016.6
20260508104003 6 0 0.0 0.0 0.00 0.46 0.00 97 1016.4
20260508103503 6 0 0.0 0.0 0.00 0.46 0.00 96 1016.3
20260508103003 6 0 0.0 0.0 0.00 0.46 0.00 96 1016.2
20260508102503 6 0 0.0 0.0 0.00 0.46 0.00 96 1016.1
20260508102003 6 0 0.0 0.0 0.00 0.46 0.00 96 1016.2
20260508101003 7 0 0.0 0.0 0.00 0.46 0.00 96 1016.0
20260508100503 7 0 0.0 0.0 0.00 0.48 0.00 95 1015.9
20260508100004 7 0 0.0 0.0 0.00 0.48 0.00 95 1015.7
20260508095503 7 0 0.0 0.0 0.00 0.48 0.00 95 1015.8
20260508094003 7 0 0.0 0.0 0.00 0.53 0.00 96 1015.7
20260508093503 7 0 0.0 0.0 0.00 0.53 0.00 96 1015.7
20260508093003 7 0 0.0 0.0 0.00 0.53 0.00 95 1015.6
20260508092503 7 0 0.0 0.0 0.00 0.53 0.00 95 1015.6
20260508092003 7 203 0.0 1.6 0.00 0.53 0.00 95 1015.7
20260508091502 7 203 0.0 1.6 0.00 0.53 0.00 95 1015.6
20260508091003 7 203 0.0 1.6 0.00 0.53 0.00 94 1015.6
20260508090003 8 0 0.0 0.0 0.00 0.53 0.00 94 1015.6
20260508085503 8 0 0.0 0.0 0.00 0.53 0.00 94 1015.7
20260508085003 8 0 0.0 0.0 0.00 0.53 0.00 94 1015.6
20260508084504 8 0 0.0 0.0 0.00 0.53 0.00 94 1015.6
20260508084003 8 0 0.0 0.0 0.00 0.53 0.00 94 1015.6
20260508083503 8 0 0.0 0.0 0.00 0.53 0.00 93 1015.6
20260508083003 8 0 0.0 0.0 0.00 0.53 0.00 93 1015.6
20260508082503 8 0 0.0 0.0 0.00 0.53 0.00 92 1015.5
20260508082003 9 188 0.0 1.6 0.00 0.53 0.00 92 1015.4
20260508081504 9 183 0.0 4.8 0.00 0.53 0.00 91 1015.5
20260508081004 9 178 0.0 4.8 0.00 0.53 0.00 91 1015.3
20260508080503 9 178 1.6 4.8 0.00 0.53 0.00 91 1015.3
20260508075503 9 178 1.6 4.8 0.00 0.53 0.00 91 1015.1
20260508075004 8 178 1.6 6.4 0.00 0.53 0.00 92 1015.1
20260508074503 8 183 1.6 9.7 0.00 0.56 0.00 92 1015.2
20260508073503 8 187 0.0 4.8 0.00 0.56 0.00 94 1015.2
20260508073003 8 192 1.6 4.8 0.00 0.56 0.00 95 1015.1
20260508072503 8 193 1.6 4.8 0.00 0.56 0.00 95 1015.0
20260508071503 8 193 0.0 1.6 0.00 0.56 0.00 95 1015.0
20260508071004 8 182 0.0 4.8 0.00 0.56 0.00 95 1015.1
20260508070004 8 171 0.0 4.8 0.00 0.56 0.00 94 1014.9
20260508065504 9 171 0.0 4.8 0.00 0.56 0.00 94 1015.0
20260508065003 9 174 1.6 4.8 0.00 0.56 0.00 95 1015.0
20260508064503 9 183 1.6 6.4 0.00 0.56 0.00 95 1014.7
20260508064003 9 184 1.6 9.7 0.00 0.56 0.00 95 1014.6
20260508063503 8 188 1.6 9.7 0.00 0.56 0.00 96 1014.6
20260508063003 8 201 1.6 9.7 0.00 0.56 0.00 96 1014.6
20260508062503 8 201 1.6 9.7 0.00 0.56 0.00 97 1014.7
20260508062003 8 201 1.6 9.7 0.00 0.58 0.00 100 1014.7
20260508061503 8 198 1.6 4.8 0.00 0.58 0.00 100 1014.7
20260508061003 7 198 0.0 4.8 0.00 0.58 0.00 100 1014.6
20260508060504 7 185 0.0 1.6 0.00 0.58 0.00 100 1014.7
20260508060004 7 185 0.0 1.6 0.00 0.58 0.00 100 1014.6
20260508055504 7 0 0.0 0.0 0.00 0.58 0.00 100 1015.0
20260508055004 7 0 0.0 0.0 0.00 0.61 0.00 100 1014.9
20260508054503 7 0 0.0 0.0 0.00 0.61 0.00 97 1015.1
20260508054003 7 0 0.0 0.0 0.00 0.66 0.00 97 1015.1
20260508053504 7 0 0.0 0.0 0.00 0.69 0.00 97 1015.1
20260508052004 7 0 0.0 0.0 0.00 0.71 0.00 97 1015.0
20260508051003 7 0 0.0 0.0 0.00 0.71 0.00 97 1014.9
20260508050504 7 0 0.0 0.0 0.00 0.71 0.00 97 1014.8
20260508050003 7 0 0.0 0.0 0.00 0.74 0.00 97 1014.8
20260508045503 7 184 0.0 1.6 0.00 0.74 0.00 97 1014.9
20260508045003 8 185 0.0 1.6 0.00 0.76 0.00 96 1014.8
20260508044504 8 185 0.0 4.8 0.00 0.76 0.00 96 1014.9
20260508044003 8 185 0.0 4.8 0.00 0.76 0.00 96 1014.8
20260508043503 8 185 0.0 4.8 0.00 0.79 0.00 96 1014.9
20260508043004 8 185 0.0 4.8 0.00 0.81 0.00 95 1014.9
20260508042503 8 185 0.0 1.6 0.00 0.81 0.00 95 1014.8
20260508042003 8 185 0.0 4.8 0.00 0.86 0.00 95 1014.8
20260508041504 8 185 0.0 4.8 0.00 0.86 0.00 95 1014.7
20260508041003 8 184 0.0 1.6 0.00 0.86 0.00 94 1014.7
20260508040503 8 185 0.0 1.6 0.00 0.86 0.00 94 1014.7
20260508040004 8 185 0.0 1.6 0.00 0.86 0.00 93 1014.6
20260508035503 9 185 0.0 1.6 0.00 0.86 0.86 93 1014.7
20260508035003 9 185 0.0 4.8 0.00 0.86 0.86 93 1014.7
20260508034503 9 185 0.0 4.8 0.00 0.86 0.86 93 1014.7
20260508033503 10 185 0.0 4.8 0.00 0.86 0.86 92 1014.6
20260508033003 10 185 0.0 4.8 0.00 0.86 0.86 91 1014.7
20260508032503 10 185 0.0 1.6 0.00 0.86 0.86 91 1014.7
20260508032004 10 183 0.0 4.8 0.00 0.86 0.86 91 1014.7
20260508031504 10 183 1.6 4.8 0.00 0.86 0.86 91 1014.7
20260508031004 10 182 1.6 4.8 0.00 0.86 0.86 90 1014.6
20260508030503 10 186 1.6 9.7 0.00 0.86 0.86 91 1014.4
20260508030004 10 190 0.0 9.7 0.00 0.86 0.86 90 1014.4
20260508025503 10 189 0.0 4.8 0.00 0.86 0.86 90 1014.3
20260508025003 10 185 0.0 4.8 0.00 0.86 0.86 90 1014.3
20260508024503 10 182 0.0 4.8 0.00 0.86 0.86 90 1014.4
20260508024003 10 182 0.0 4.8 0.00 0.86 0.86 89 1014.2
20260508023504 10 182 0.0 1.6 0.00 0.86 0.86 88 1014.1
20260508023003 11 182 0.0 1.6 0.00 0.86 0.86 88 1014.2
20260508022503 11 182 0.0 4.8 0.00 0.86 0.86 88 1014.1
20260508022003 11 182 0.0 4.8 0.00 0.86 0.86 87 1014.0
20260508021503 11 182 1.6 4.8 0.00 0.89 0.86 86 1014.0
20260508021004 11 182 1.6 4.8 0.00 0.91 0.86 85 1013.9
20260508020503 11 182 1.6 4.8 0.00 0.91 0.86 85 1013.9
20260508020004 11 181 1.6 11.3 0.00 1.02 0.86 86 1013.9
20260508015004 11 185 1.6 9.7 0.00 1.04 0.86 87 1013.8
20260508014504 11 186 1.6 6.4 0.00 1.04 0.86 87 1013.6
20260508014004 11 176 3.2 6.4 0.00 1.04 0.86 87 1013.6
20260508013504 11 165 3.2 9.7 0.00 1.04 0.86 86 1013.4
20260508013004 11 163 3.2 9.7 0.00 1.04 0.86 86 1013.4
20260508012504 11 163 3.2 9.7 0.00 1.04 0.86 87 1013.5
20260508012004 11 162 1.6 9.7 0.00 1.07 0.86 87 1013.5
20260508011003 11 172 3.2 12.9 0.00 1.07 0.86 87 1013.2
20260508005504 11 176 3.2 9.7 0.00 1.07 0.86 86 1013.1
20260508005003 11 172 4.8 9.7 0.00 1.09 0.86 86 1013.2
20260508004504 11 173 3.2 11.3 0.00 1.09 0.86 86 1013.0
20260508003005 11 166 3.2 12.9 0.00 1.09 0.86 86 1012.8
20260508002504 11 164 3.2 12.9 0.00 1.09 0.86 86 1012.8
20260508002004 12 168 3.2 11.3 0.00 1.14 0.86 87 1012.8
20260508001504 12 176 3.2 11.3 0.00 1.24 0.86 86 1012.7
20260508001004 12 188 3.2 9.7 0.00 1.27 0.86 86 1012.6
20260508000504 12 182 3.2 9.7 0.00 1.27 0.86 87 1012.5
20260508000004 12 185 3.2 11.3 0.00 1.30 0.86 86 1012.6
20260507235504 12 199 4.8 11.3 0.00 1.32 0.86 86 1012.6
20260507235004 12 184 4.8 12.9 0.00 1.32 0.86 85 1012.6
20260507234504 12 170 4.8 12.9 0.00 1.35 0.86 85 1012.5
20260507234004 12 186 3.2 11.3 0.00 1.35 0.86 86 1012.6
20260507233504 12 178 4.8 12.9 0.00 1.35 0.86 85 1012.6
20260507233003 12 167 4.8 12.9 0.00 1.35 0.86 85 1012.6
20260507232003 12 181 4.8 12.9 0.00 1.40 0.86 85 1012.3
20260507231504 12 182 6.4 12.9 0.00 1.42 0.86 85 1012.3
20260507231004 12 177 8.0 24.1 0.00 1.45 0.86 84 1012.3
20260507230004 12 183 4.8 12.9 0.00 1.52 0.86 84 1012.4
20260507225504 12 178 4.8 12.9 0.00 1.55 0.86 84 1012.3
20260507225003 13 176 3.2 12.9 0.00 1.57 0.86 84 1012.3
20260507224504 13 186 3.2 11.3 0.00 1.63 0.86 85 1012.2
20260507224003 13 186 4.8 12.9 0.00 1.65 0.86 85 1012.2
20260507223504 13 182 8.0 16.1 0.00 1.65 0.86 84 1012.0
20260507222503 13 175 8.0 16.1 0.00 1.68 0.86 84 1011.8
20260507221503 14 181 4.8 16.1 0.00 1.70 0.86 82 1011.6
20260507220502 15 172 4.8 17.7 0.00 1.73 0.86 82 1011.2
20260507220002 15 173 6.4 17.7 0.00 1.75 0.86 81 1011.0
20260507214502 16 161 6.4 16.1 0.00 1.83 0.86 81 1010.7